Skip Page Navigation
NASA JPL Caltech
NASA Logo - Jet Propulsion Laboratory + View the NASA Portal
+ Near-Earth Object (NEO) Program
Search JPL
JPL Home Earth Solar System Stars & Galaxies Technology
JPL Solar System Dynamics
BODIES ORBITS EPHEMERIDES TOOLS PHYSICAL DATA DISCOVERY FAQ SITE MAP
JPL Small-Body Database Browser
Search: [ help ]  
30252 Textorisova (2000 HE24)
Classification: Main-belt Asteroid          SPK-ID: 2030252
Ephemeris | Orbit Diagram | Orbital Elements | Physical Parameters | Discovery Circumstances ]

[ show orbit diagram ]
Orbital Elements at Epoch 2456400.5 (2013-Apr-18.0) TDB
Reference: MPO257075 (heliocentric ecliptic J2000)
 Element Value Uncertainty (1-sigma)   Units 
e 0.1778102 n/a  
a 2.3400933 n/a AU
q 1.9240008 n/a AU
i 7.64865 n/a deg
node 58.52975 n/a deg
peri 358.34953 n/a deg
M 29.24526 n/a deg
tp 2456294.2812518
(2013-Jan-01.78125180)
n/a JED
period 1307.5195559
3.58
n/a
n/a
d
yr
n 0.27533049 n/a deg/d
Q 2.7561858 n/a AU
  Orbit Determination Parameters
   # obs. used (total)      458  
   first obs. used      1987-??-??  
   last obs. used      2013-03-08  
   # oppositions      12  
   planetary ephem.      DE403  
   condition code      0  
   fit RMS      0.52  
   data source      MPC:mpn  
   producer      MPCLINUX  

Additional Information
 T_jup = 3.532 

Ephemeris | Orbit Diagram | Orbital Elements | Physical Parameters | Discovery Circumstances ]

Physical Parameter Table
Parameter Symbol Value Units Sigma Reference Notes
absolute magnitude H 15.4 mag n/a PDS3 (MPO 16551)  

30252 Textorisová           Discovered 2000 Apr. 30 by P. Kusnirák at Ondrejov.
Izabela Textorisová (1866-1949) was Slovakia's first female botanist. Her copious herbarium is still today a valuable source for botanists. She described more than a hundred new plants in the Turiec region. In 1893 she discovered a new species of thistle, later named Carduus textorisianus Marg. in her honor.
NOTE: some special characters may not display properly (any characters within {} are an attempt to place the proper accent above a character)
Reference: 20020427/MPCPages.arcLast Updated: 2003-10-02

Alternate Designations
 2000 HE24 = 1999 BD17 
Ephemeris | Orbit Diagram | Orbital Elements | Physical Parameters | Discovery Circumstances ]
ABOUT SSD CREDITS/AWARDS PRIVACY/COPYRIGHT GLOSSARY LINKS
FirstGov 2013-May-20 06:02 UT
(server date/time)  
NASA Home Page
Site Manager:   Donald K. Yeomans
Webmaster  Alan B. Chamberlin